TimeEDT,TemperatureF,Dew PointF,Humidity,Sea Level PressureIn,VisibilityMPH,Wind Direction,Wind SpeedMPH,Gust SpeedMPH,PrecipitationIn,Events,Conditions,WindDirDegrees,DateUTC
12:05 AM,69.8,66.2,88,30.03,5.0,South,9.2,-,0.00,,Overcast,180,2013-08-01 04:05:00
12:11 AM,69.8,66.2,88,30.03,6.0,South,9.2,-,0.00,Rain,Light Rain,180,2013-08-01 04:11:00
12:21 AM,69.8,66.2,88,30.03,5.0,South,8.1,-,0.00,Rain,Light Rain,180,2013-08-01 04:21:00
12:33 AM,68.0,66.2,94,30.02,4.0,South,6.9,-,0.01,Rain,Light Rain,170,2013-08-01 04:33:00
12:53 AM,68.0,66.9,96,30.01,5.0,South,6.9,-,0.02,Rain,Light Rain,180,2013-08-01 04:53:00
1:10 AM,68.0,66.2,94,30.01,3.0,South,4.6,-,0.02,Rain,Light Rain,190,2013-08-01 05:10:00
1:53 AM,68.0,66.9,96,29.97,5.0,South,3.5,-,0.05,Rain,Light Rain,180,2013-08-01 05:53:00
2:30 AM,68.0,66.2,94,29.97,6.0,Calm,Calm,-,0.00,Rain,Light Rain,0,2013-08-01 06:30:00
2:42 AM,68.0,66.2,94,29.97,5.0,Calm,Calm,-,0.00,Rain,Light Rain,0,2013-08-01 06:42:00
2:53 AM,68.0,66.9,96,29.94,3.0,Calm,Calm,-,0.02,Rain,Rain,0,2013-08-01 06:53:00
3:06 AM,68.0,66.2,94,29.96,3.0,Calm,Calm,-,0.01,Rain,Light Rain,0,2013-08-01 07:06:00
3:28 AM,68.0,66.2,94,29.95,3.0,Calm,Calm,-,0.01,Rain,Light Rain,0,2013-08-01 07:28:00
3:53 AM,68.0,66.9,96,29.92,4.0,Calm,Calm,-,0.01,,Overcast,0,2013-08-01 07:53:00
4:11 AM,68.0,66.2,94,29.93,2.5,Calm,Calm,-,N/A,,Overcast,0,2013-08-01 08:11:00
4:53 AM,68.0,66.9,96,29.91,2.5,Calm,Calm,-,0.01,,Overcast,0,2013-08-01 08:53:00
5:53 AM,68.0,66.9,96,29.91,2.5,Calm,Calm,-,N/A,,Overcast,0,2013-08-01 09:53:00
6:42 AM,68.0,66.2,94,29.93,1.0,SE,3.5,-,0.01,,Overcast,140,2013-08-01 10:42:00
6:53 AM,68.0,66.9,96,29.91,1.5,SSE,4.6,-,0.01,Rain,Light Rain,150,2013-08-01 10:53:00
7:01 AM,68.0,66.2,94,29.93,2.5,South,3.5,-,0.00,Rain,Light Rain,170,2013-08-01 11:01:00
7:53 AM,69.1,68.0,96,29.92,2.5,South,3.5,-,0.00,,Overcast,180,2013-08-01 11:53:00
8:49 AM,69.8,68.0,94,29.93,2.5,South,3.5,-,N/A,,Overcast,180,2013-08-01 12:49:00
8:53 AM,69.1,68.0,96,29.92,2.5,South,4.6,-,N/A,,Overcast,180,2013-08-01 12:53:00
9:13 AM,69.8,68.0,94,29.94,2.5,SSW,4.6,-,N/A,,Overcast,200,2013-08-01 13:13:00
9:53 AM,70.0,68.0,93,29.92,2.5,SSW,5.8,-,0.00,Rain,Light Rain,210,2013-08-01 13:53:00
10:53 AM,73.0,69.1,87,29.91,10.0,South,3.5,-,0.00,,Mostly Cloudy,190,2013-08-01 14:53:00
11:01 AM,73.4,69.8,88,29.93,10.0,Calm,Calm,-,N/A,,Mostly Cloudy,0,2013-08-01 15:01:00
11:40 AM,75.2,68.0,78,29.92,10.0,Calm,Calm,-,N/A,,Scattered Clouds,0,2013-08-01 15:40:00
11:53 AM,75.9,68.0,76,29.90,10.0,Calm,Calm,-,N/A,,Partly Cloudy,0,2013-08-01 15:53:00
12:35 PM,77.0,68.0,74,29.90,10.0,SSE,3.5,-,N/A,,Mostly Cloudy,160,2013-08-01 16:35:00
12:53 PM,80.1,68.0,67,29.88,10.0,Calm,Calm,-,N/A,,Scattered Clouds,0,2013-08-01 16:53:00
1:53 PM,82.0,68.0,62,29.86,10.0,South,9.2,-,N/A,,Partly Cloudy,190,2013-08-01 17:53:00
2:53 PM,84.9,68.0,57,29.83,10.0,SE,6.9,-,N/A,,Partly Cloudy,130,2013-08-01 18:53:00
3:49 PM,75.2,68.0,78,29.88,2.5,WNW,15.0,24.2,0.07,Rain-Thunderstorm,Thunderstorms and Rain,290,2013-08-01 19:49:00
3:51 PM,73.4,68.0,83,29.89,0.8,WNW,13.8,24.2,0.19,Rain-Thunderstorm,Thunderstorms and Rain,300,2013-08-01 19:51:00
3:53 PM,71.1,68.0,90,29.86,0.5,NW,16.1,26.5,0.38,Fog-Rain-Thunderstorm,Thunderstorms and Rain,310,2013-08-01 19:53:00
3:58 PM,69.8,66.2,88,29.88,0.2,WNW,11.5,26.5,0.60,Fog-Rain-Thunderstorm,Thunderstorms and Rain,300,2013-08-01 19:58:00
4:08 PM,69.8,66.2,88,29.87,2.0,Variable,3.5,20.7,0.83,Rain-Thunderstorm,Thunderstorms and Rain,0,2013-08-01 20:08:00
4:14 PM,71.6,68.0,88,29.86,6.0,Calm,Calm,-,0.83,,Overcast,0,2013-08-01 20:14:00
4:21 PM,71.6,68.0,88,29.86,6.0,SSE,8.1,-,0.83,,Overcast,160,2013-08-01 20:21:00
4:53 PM,72.0,68.0,87,29.85,10.0,Calm,Calm,-,0.84,,Mostly Cloudy,0,2013-08-01 20:53:00
5:24 PM,73.4,69.8,88,29.88,10.0,NE,4.6,-,N/A,,Overcast,50,2013-08-01 21:24:00
5:53 PM,73.9,70.0,87,29.86,10.0,East,6.9,-,N/A,,Scattered Clouds,100,2013-08-01 21:53:00
6:53 PM,73.0,68.0,84,29.86,10.0,South,4.6,-,N/A,,Partly Cloudy,170,2013-08-01 22:53:00
7:53 PM,73.0,70.0,90,29.88,10.0,Calm,Calm,-,N/A,,Clear,0,2013-08-01 23:53:00
8:53 PM,70.0,68.0,93,29.90,10.0,Calm,Calm,-,N/A,,Mostly Cloudy,0,2013-08-02 00:53:00
9:53 PM,69.1,66.9,93,29.90,10.0,SSW,3.5,-,N/A,,Clear,210,2013-08-02 01:53:00
10:53 PM,68.0,66.9,96,29.90,10.0,Calm,Calm,-,N/A,,Clear,0,2013-08-02 02:53:00
11:53 PM,68.0,66.9,96,29.91,6.0,SSW,3.5,-,N/A,,Mostly Cloudy,210,2013-08-02 03:53:00